Погода в Юнане

Китай     23°08′54″N   111°45′44″E
темп.,
°C
ветер,
м/с
пор.,
м/с
влажн.,
%
обл.,
%
осадки,
мм/ч
давл.,
гПа
погр.,
м
20 апреля, вт
вт2023:00+19в259598 0.6 1013266
02:00+19в2692100 0.8 1012335
05:00+18всв2493100 0.8 1012212
08:00+19в278994 1.1 1014455
11:00+22вюв367891 0.0 1014776
14:00+26вюв346285 0.0 10111179
17:00+26вюв246570 0.0 10101068
20:00+23в2276100 0.0 101138
21 апреля, ср
ср2123:00+23вюв1181100 0.0 101337
02:00+22вюв2385100 0.0 1012109
05:00+21вюв1286100 0.0 1012117
08:00+22вюв1282100 0.0 1013263
11:00+24юв237198 0.0 1014821
14:00+29юв225850 0.0 10101292
17:00+29ю125860 0.0 10091298
20:00+24ююв11785 0.2 101013
22 апреля, чт
чт2223:00+23ю01810 0.0 101111
02:00+22ююв11870 0.0 101022
05:00+21ююв11890 0.0 101015
08:00+23ю117923 0.2 1011303
11:00+29зюз115934 0.0 10111072
14:00+28зсз336238 1.4 10081172
17:00+30з225629 0.1 10061366
20:00+25сз11760 0.1 100714
23 апреля, пт
пт2323:00+24сз11790 0.0 100911
02:00+23з00830 0.0 100811
05:00+22св00860 0.0 100711
08:00+25ю01760 0.0 1008242
11:00+31з015628 0.1 10091351
14:00+31ююз1251100 0.2 10061553
17:00+30св1261100 0.0 1005189
20:00+28вюв2266100 0.0 100635
24 апреля, сб
сб2423:00+26юв2273100 0.0 100768
02:00+25юв1273100 0.0 100774
05:00+25юв227899 0.0 100782
08:00+25вюв137696 0.0 1009427
11:00+29ююв3659100 0.0 10091293
14:00+30ю365791 0.1 10071283
17:00+28ююв2664100 0.1 1006251
20:00+26ююв2768100 0.1 1008359